This is the latest recevied weather packets stored in our database for station/object K7AEL. If no packets are shown the sender has not sent any weather packets the latest 10 day(s).
| Time | Temp. | Humidity | Pressure | Rain* | Wind** | Luminosity | Snow |
|---|---|---|---|---|---|---|---|
| 1777853412 | 31.67° C | 12% | 1010.5 hPa | 0 mm | - | 193 W/m² | - |
| 1777853109 | 31.67° C | 12% | 1010.5 hPa | 0 mm | - | 207 W/m² | - |
| 1777852806 | 31.67° C | 12% | 1010.3 hPa | 0 mm | - | 221 W/m² | - |
| 1777852504 | 32.78° C | 12% | 1010.1 hPa | 0 mm | - | 231 W/m² | - |
| 1777852201 | 31.67° C | 12% | 1010.2 hPa | 0 mm | - | 248 W/m² | - |
| 1777851898 | 32.22° C | 12% | 1010.4 hPa | 0 mm | - | 251 W/m² | - |
| 1777851597 | 32.22° C | 12% | 1010.2 hPa | 0 mm | - | 288 W/m² | - |
| 1777851293 | 32.22° C | 12% | 1010.2 hPa | 0 mm | - | 303 W/m² | - |
| 1777850989 | 32.78° C | 13% | 1010.2 hPa | 0 mm | - | 270 W/m² | - |
| 1777850686 | 32.78° C | 12% | 1009.9 hPa | 0 mm | - | 311 W/m² | - |
| 1777850384 | 32.78° C | 12% | 1010.2 hPa | 0 mm | - | 367 W/m² | - |
| 1777850081 | 32.78° C | 12% | 1010.2 hPa | 0 mm | - | 378 W/m² | - |
| 1777849777 | 33.33° C | 12% | 1010.2 hPa | 0 mm | - | 321 W/m² | - |
| 1777849474 | 32.78° C | 12% | 1009.9 hPa | 0 mm | - | 357 W/m² | - |
| 1777849172 | 32.78° C | 12% | 1010.3 hPa | 0 mm | - | 345 W/m² | - |
| 1777848868 | 32.78° C | 13% | 1010.1 hPa | 0 mm | - | 251 W/m² | - |
| 1777848564 | 33.33° C | 13% | 1010.4 hPa | 0 mm | - | 300 W/m² | - |
| 1777848261 | 33.33° C | 13% | 1010.5 hPa | 0 mm | - | 390 W/m² | - |
| 1777847959 | 33.33° C | 13% | 1010.4 hPa | 0 mm | - | 443 W/m² | - |
| 1777847656 | 33.33° C | 13% | 1010.5 hPa | 0 mm | - | 416 W/m² | - |
| 1777847351 | 33.33° C | 14% | 1010.4 hPa | 0 mm | - | 394 W/m² | - |
| 1777847050 | 33.89° C | 14% | 1010.6 hPa | 0 mm | - | 388 W/m² | - |
| 1777846748 | 33.89° C | 14% | 1010.6 hPa | 0 mm | - | 467 W/m² | - |
| 1777846446 | 35° C | 15% | 1010.5 hPa | 0 mm | - | 510 W/m² | - |
| 1777846142 | 33.89° C | 15% | 1010.6 hPa | 0 mm | - | 454 W/m² | - |
* Rain latest hour (hover to see other rain measurements)
** Current wind speed in m/s (hover to see current wind gust speed)